SAS1OS ESGG-EKCH

Flight info

Callsign SAS1OS
Flight time 0h 31m
Altitude 17000
Route TOPLA L996 ERNOV
Aircraft A359/H-SDE2E3GHIJ3J4J5LM1ORWXY/LB1D1

Departure

Time 2026-04-22 19:01
Airport Göteborg Landvetter Airport (ESGG)

Arrival

Time 2026-04-22 19:33
Airport Copenhagen Kastrup Airport (EKCH)
Time Latitude Longitude Altitude Speed Heading
2026-04-22 18:57 57.66777 12.29072 532 ft 10 kts 276°
2026-04-22 18:57 57.66766 12.28964 532 ft 7 kts 231°
2026-04-22 18:57 57.66715 12.28896 531 ft 11 kts 216°
2026-04-22 18:58 57.66674 12.28786 531 ft 10 kts 262°
2026-04-22 18:58 57.66635 12.28663 530 ft 14 kts 216°
2026-04-22 18:58 57.66511 12.28529 529 ft 27 kts 207°
2026-04-22 18:58 57.66314 12.28354 527 ft 34 kts 206°
2026-04-22 18:59 57.66088 12.28150 524 ft 38 kts 206°
2026-04-22 18:59 57.65841 12.27926 522 ft 41 kts 206°
2026-04-22 18:59 57.65575 12.27685 519 ft 44 kts 206°
2026-04-22 18:59 57.65305 12.27435 517 ft 30 kts 206°
2026-04-22 19:00 57.65127 12.27262 516 ft 31 kts 208°
2026-04-22 19:00 57.65016 12.27091 514 ft 6 kts 271°
2026-04-22 19:00 57.65038 12.27043 515 ft 12 kts 323°
2026-04-22 19:00 57.65248 12.27023 518 ft 49 kts 26°
2026-04-22 19:01 57.65808 12.27535 521 ft 131 kts 26°
2026-04-22 19:01 57.66834 12.28495 568 ft 194 kts 30°
2026-04-22 19:01 57.68140 12.29645 1158 ft 214 kts 20°
2026-04-22 19:01 57.69486 12.30952 2064 ft 223 kts 35°
2026-04-22 19:02 57.70361 12.33368 2961 ft 238 kts 70°
2026-04-22 19:02 57.70261 12.36451 4183 ft 238 kts 106°
2026-04-22 19:02 57.69600 12.39246 5327 ft 233 kts 108°
2026-04-22 19:02 57.68881 12.41996 6209 ft 240 kts 118°
2026-04-22 19:03 57.67735 12.44301 7022 ft 252 kts 141°
2026-04-22 19:03 57.66062 12.45628 7499 ft 276 kts 169°
2026-04-22 19:03 57.64078 12.46097 7985 ft 295 kts 175°
2026-04-22 19:03 57.62004 12.46468 8710 ft 303 kts 175°
2026-04-22 19:04 57.59880 12.46682 9571 ft 307 kts 181°
2026-04-22 19:04 57.57727 12.46677 10368 ft 312 kts 182°
2026-04-22 19:04 57.55496 12.46652 10804 ft 330 kts 182°
2026-04-22 19:04 57.53940 12.46614 11027 ft 343 kts 184°
2026-04-22 19:05 57.51519 12.46090 11439 ft 357 kts 191°
2026-04-22 19:05 57.49048 12.45289 12069 ft 363 kts 192°
2026-04-22 19:05 57.46543 12.44457 12746 ft 368 kts 192°
2026-04-22 19:05 57.44001 12.43623 13436 ft 372 kts 192°
2026-04-22 19:06 57.41442 12.42791 14123 ft 376 kts 192°
2026-04-22 19:06 57.38852 12.41954 14731 ft 380 kts 191°
2026-04-22 19:06 57.36231 12.41111 15366 ft 383 kts 191°
2026-04-22 19:07 57.30932 12.39413 16647 ft 390 kts 190°
2026-04-22 19:07 57.28257 12.38558 17096 ft 391 kts 189°
2026-04-22 19:07 57.25584 12.37707 17233 ft 403 kts 189°
2026-04-22 19:07 57.22751 12.36806 17238 ft 417 kts 189°
2026-04-22 19:08 57.19878 12.35894 17232 ft 421 kts 189°
2026-04-22 19:08 57.16983 12.34975 17233 ft 422 kts 189°
2026-04-22 19:08 57.14077 12.34205 17230 ft 422 kts 184°
2026-04-22 19:08 57.11130 12.34253 17233 ft 421 kts 175°
2026-04-22 19:09 57.08213 12.34788 17235 ft 421 kts 171°
2026-04-22 19:09 57.05315 12.35555 17233 ft 421 kts 170°
2026-04-22 19:09 57.02466 12.36388 17233 ft 420 kts 170°
2026-04-22 19:09 56.99570 12.37230 17233 ft 419 kts 170°
2026-04-22 19:10 56.96682 12.38033 17232 ft 419 kts 171°
2026-04-22 19:10 56.93796 12.38797 17231 ft 419 kts 171°
2026-04-22 19:10 56.90901 12.39534 17230 ft 419 kts 171°
2026-04-22 19:10 56.88010 12.40251 17236 ft 420 kts 171°
2026-04-22 19:11 56.85111 12.40961 17226 ft 421 kts 171°
2026-04-22 19:11 56.82207 12.41669 17225 ft 422 kts 171°
2026-04-22 19:11 56.79294 12.42378 17223 ft 422 kts 171°
2026-04-22 19:11 56.76385 12.43086 17222 ft 422 kts 171°
2026-04-22 19:12 56.73520 12.43785 17222 ft 421 kts 172°
2026-04-22 19:12 56.70583 12.44500 17221 ft 420 kts 172°
2026-04-22 19:12 56.67723 12.45196 17221 ft 419 kts 172°
2026-04-22 19:12 56.64823 12.45901 17221 ft 419 kts 172°
2026-04-22 19:13 56.61930 12.46604 17222 ft 420 kts 172°
2026-04-22 19:13 56.59040 12.47305 17222 ft 419 kts 172°
2026-04-22 19:13 56.56140 12.48006 17224 ft 419 kts 172°
2026-04-22 19:13 56.53242 12.48707 17226 ft 419 kts 172°
2026-04-22 19:14 56.50337 12.49408 17229 ft 419 kts 172°
2026-04-22 19:14 56.47449 12.50104 17230 ft 419 kts 172°
2026-04-22 19:14 56.44562 12.50798 17228 ft 418 kts 172°
2026-04-22 19:14 56.41708 12.51483 16864 ft 408 kts 172°
2026-04-22 19:15 56.38883 12.52160 15809 ft 411 kts 172°
2026-04-22 19:15 56.36049 12.52837 14661 ft 419 kts 172°
2026-04-22 19:15 56.33196 12.53516 14125 ft 400 kts 172°
2026-04-22 19:15 56.30530 12.54149 13579 ft 371 kts 172°
2026-04-22 19:16 56.28055 12.54736 13054 ft 348 kts 173°
2026-04-22 19:16 56.25704 12.55294 12425 ft 331 kts 173°
2026-04-22 19:16 56.23514 12.55814 12277 ft 305 kts 173°
2026-04-22 19:16 56.21453 12.56302 12081 ft 301 kts 173°
2026-04-22 19:17 56.19362 12.56795 11663 ft 302 kts 173°
2026-04-22 19:17 56.17283 12.57259 11251 ft 301 kts 175°
2026-04-22 19:17 56.15173 12.57410 11066 ft 311 kts 180°
2026-04-22 19:17 56.12975 12.57435 11017 ft 318 kts 181°
2026-04-22 19:18 56.10783 12.57450 10839 ft 319 kts 181°
2026-04-22 19:18 56.08559 12.57468 10577 ft 319 kts 181°
2026-04-22 19:18 56.06340 12.57489 10210 ft 317 kts 181°
2026-04-22 19:18 56.04128 12.57509 9925 ft 317 kts 181°
2026-04-22 19:19 56.01923 12.57530 9690 ft 317 kts 181°
2026-04-22 19:19 55.99717 12.57551 9459 ft 316 kts 181°
2026-04-22 19:19 55.97518 12.57573 9235 ft 315 kts 181°
2026-04-22 19:19 55.95328 12.57594 9009 ft 314 kts 181°
2026-04-22 19:20 55.93140 12.57616 8776 ft 313 kts 181°
2026-04-22 19:20 55.90972 12.57637 8565 ft 311 kts 181°
2026-04-22 19:20 55.88806 12.57658 8328 ft 309 kts 181°
2026-04-22 19:20 55.86683 12.57306 8138 ft 305 kts 197°
2026-04-22 19:21 55.84700 12.56184 7906 ft 302 kts 203°
2026-04-22 19:21 55.82735 12.54890 7702 ft 300 kts 204°
2026-04-22 19:21 55.80776 12.53596 7461 ft 299 kts 204°
2026-04-22 19:21 55.78828 12.52319 7183 ft 298 kts 204°
2026-04-22 19:22 55.76885 12.51054 6851 ft 296 kts 204°
2026-04-22 19:22 55.74953 12.49802 6608 ft 294 kts 204°
2026-04-22 19:22 55.73033 12.48561 6405 ft 293 kts 204°
2026-04-22 19:22 55.71179 12.47365 6146 ft 292 kts 204°
2026-04-22 19:23 55.69273 12.46137 5894 ft 290 kts 204°
2026-04-22 19:23 55.67377 12.44918 5638 ft 289 kts 204°
2026-04-22 19:23 55.65521 12.43725 5376 ft 284 kts 204°
2026-04-22 19:23 55.63670 12.42540 5184 ft 277 kts 204°
2026-04-22 19:24 55.61898 12.41409 5018 ft 263 kts 204°
2026-04-22 19:24 55.60230 12.40346 4799 ft 252 kts 204°
2026-04-22 19:24 55.58591 12.39300 4454 ft 249 kts 204°
2026-04-22 19:24 55.56963 12.38264 4159 ft 246 kts 204°
2026-04-22 19:25 55.55370 12.37264 4013 ft 245 kts 204°
2026-04-22 19:25 55.53774 12.36209 4000 ft 244 kts 210°
2026-04-22 19:25 55.52368 12.34612 4013 ft 238 kts 223°
2026-04-22 19:25 55.51076 12.32793 4012 ft 237 kts 225°
2026-04-22 19:26 55.49800 12.30951 4013 ft 237 kts 225°
2026-04-22 19:26 55.48461 12.29214 3976 ft 243 kts 212°
2026-04-22 19:26 55.46795 12.28514 3641 ft 252 kts 181°
2026-04-22 19:26 55.45120 12.29345 3350 ft 252 kts 150°
2026-04-22 19:27 55.43840 12.31360 3003 ft 251 kts 129°
2026-04-22 19:27 55.42861 12.33882 2595 ft 249 kts 110°
2026-04-22 19:27 55.42642 12.36811 2224 ft 238 kts 74°
2026-04-22 19:27 55.43427 12.39173 2033 ft 218 kts 32°
2026-04-22 19:28 55.44728 12.40446 2009 ft 214 kts 21°
2026-04-22 19:28 55.46042 12.41718 2007 ft 217 kts 25°
2026-04-22 19:28 55.47276 12.43204 2000 ft 208 kts 32°
2026-04-22 19:28 55.48339 12.44789 2011 ft 191 kts 34°
2026-04-22 19:29 55.49293 12.46283 2013 ft 180 kts 34°
2026-04-22 19:29 55.50234 12.47739 2009 ft 179 kts 34°
2026-04-22 19:29 55.51180 12.49183 2008 ft 180 kts 33°
2026-04-22 19:29 55.52128 12.50626 2008 ft 179 kts 33°
2026-04-22 19:30 55.52734 12.51554 2004 ft 168 kts 32°
2026-04-22 19:30 55.53852 12.53286 1764 ft 154 kts 34°
2026-04-22 19:30 55.54641 12.54514 1551 ft 149 kts 33°
2026-04-22 19:30 55.55397 12.55682 1339 ft 143 kts 33°
2026-04-22 19:31 55.56128 12.56813 1137 ft 136 kts 33°
2026-04-22 19:31 55.56812 12.57874 964 ft 127 kts 32°
2026-04-22 19:31 55.57460 12.58873 791 ft 120 kts 34°
2026-04-22 19:31 55.58076 12.59831 624 ft 117 kts 36°
2026-04-22 19:32 55.58682 12.60794 475 ft 117 kts 37°
2026-04-22 19:32 55.59291 12.61749 297 ft 116 kts 36°
2026-04-22 19:32 55.59900 12.62683 147 ft 116 kts 35°
2026-04-22 19:32 55.60509 12.63626 38 ft 115 kts 36°
2026-04-22 19:33 55.61059 12.64463 30 ft 90 kts 41°
2026-04-22 19:33 55.61308 12.64854 29 ft 1 kts 41°
2026-04-22 19:33 55.61393 12.64981 29 ft 30 kts 35°
2026-04-22 19:33 55.61571 12.65035 27 ft 8 kts 341°
2026-04-22 19:34 55.61628 12.64974 25 ft 12 kts 324°
2026-04-22 19:34 55.61696 12.64873 29 ft 13 kts 317°
2026-04-22 19:34 55.61813 12.64793 26 ft 27 kts 359°
2026-04-22 19:34 55.61976 12.64913 29 ft 14 kts 33°
2026-04-22 19:35 55.62101 12.65057 29 ft 27 kts 33°
2026-04-22 19:35 55.62235 12.65144 29 ft 8 kts 334°
2026-04-22 19:35 55.62281 12.65057 29 ft 23 kts 306°
2026-04-22 19:35 55.62401 12.64744 29 ft 24 kts 305°
2026-04-22 19:36 55.62493 12.64490 27 ft 26 kts 302°
2026-04-22 19:36 55.62570 12.64288 29 ft 0 kts 326°
2026-04-22 19:36 55.62625 12.64296 29 ft 7 kts 27°
2026-04-22 19:36 55.62641 12.64314 29 ft 2 kts 33°
2026-04-22 19:37 55.62664 12.64333 28 ft 5 kts 30°
2026-04-22 19:37 55.62679 12.64364 26 ft 1 kts 72°
2026-04-22 19:37 55.62675 12.64399 27 ft 6 kts 102°
2026-04-22 19:37 55.62673 12.64425 27 ft 0 kts 99°